[[{"header":{"parameterUnit":"m.s-1","parameterCategory":1,"la1":30.2991,"la2":30.254,"lo1":-89.0895,"lo2":-89.0444,"dy":0.0017,"dx":0.0017,"nx":28,"ny":28,"refTime":"2024-05-14T03:00:00:Z","depth":0,"parameterNumber":2,"parameterNumberName":"U-component_of_WINDS"},"data":[0,0,0,0,0,0,0,0,0,0,0,0,0,0,0,0,0,0,0,0,0,0,0,0,0,0,0,0,0,0,0,0,0,0,0,0,0,0,0,0,0,0,0,0,0,0,0,0,0,0,0,0,0,0,0,0,0,0,2.3751,2.3753,0,2.395,2.3952,2.3954,2.3965,2.3962,2.396,2.3958,2.4168,2.4176,2.4183,0,0,0,0,0,0,0,0,0,0,0,0,0,2.3389,2.3396,2.3751,2.3753,2.3756,2.3949,2.3952,2.3955,2.3965,2.3962,2.3959,2.3957,2.4166,2.4175,2.4184,0,0,0,0,0,0,0,0,0,0,0,0,0,2.3563,2.3398,2.375,2.3784,2.3789,2.3949,2.3952,2.3956,2.3966,2.3962,2.3959,2.3955,2.4163,2.4174,2.4185,2.4327,0,0,2.4221,2.4226,0,0,0,0,0,0,0,0,2.3553,2.3577,2.3777,2.3782,2.3788,2.3929,2.3902,2.408,2.3966,2.3899,2.3958,2.3954,2.4092,2.4109,2.4154,2.4337,2.4346,2.4222,2.4229,2.4234,2.4237,0,0,0,0,0,0,0,2.3541,2.3568,2.383,2.378,2.3786,2.3792,2.3813,2.3936,2.4013,2.3904,2.3906,2.3929,2.4094,2.4143,2.4159,2.4349,2.4222,2.4232,2.4239,2.4244,2.4664,2.4668,0,0,0,0,0,0,2.3522,2.3558,2.3823,2.3836,2.3659,2.3802,2.3825,2.3887,2.4011,2.4027,2.3931,2.3928,2.4125,2.4146,2.4167,2.4344,2.4234,2.4245,2.4252,2.466,2.4665,2.4669,0,0,0,0,0,0,2.3514,2.3545,2.3815,2.3697,2.3732,2.3811,2.3881,2.3893,2.3941,2.4032,2.4046,2.3966,2.4123,2.415,2.4288,2.4351,2.425,2.4261,2.4655,2.4661,2.4667,2.4697,0,0,0,0,0,0,2.3503,2.3542,2.3594,2.3698,2.3738,2.393,2.3885,2.3899,2.3961,2.3959,2.4068,2.4083,2.4122,2.427,2.4299,2.4365,2.427,2.4649,2.4658,2.4665,2.4691,2.4704,2.4715,0,0,0,0,0,2.349,2.3596,2.3597,2.3629,2.3805,2.3934,2.3957,2.3998,2.3965,2.4021,2.4079,2.408,2.4339,2.4284,2.4317,2.4388,2.4646,2.4655,2.4664,2.4686,2.4701,2.4715,0,0,0,0,0,0,2.3498,2.361,2.3612,2.3754,2.3834,2.3935,2.4005,2.4012,2.4105,2.41,2.4148,2.4173,2.4311,2.4363,2.4299,2.4534,2.4489,2.4506,2.4494,2.451,2.4522,2.4507,2.428,0,0,0,0,0,2.3516,2.3609,2.3702,2.3818,2.3859,2.3925,2.3983,2.4007,2.4094,2.4128,2.4197,2.4283,2.4384,2.445,2.4548,2.4699,2.4725,2.4764,2.4776,2.4785,2.4799,2.4887,2.4907,2.47,2.47,2.47,0,0,2.3555,2.3627,2.3683,2.3822,2.3887,2.3986,2.3954,2.4058,2.4133,2.4145,2.4279,2.4333,2.4433,2.4578,2.4646,2.4626,2.4862,2.4797,2.4804,2.4813,2.4899,2.4918,2.4936,2.4706,2.4705,2.4704,0,0,2.3676,2.3738,2.3843,2.391,2.4008,2.4053,2.4078,2.4179,2.4215,2.435,2.4362,2.4454,2.4626,2.4698,2.4756,2.4909,2.4914,2.494,2.5002,2.5087,2.5104,2.5118,2.5176,2.5195,2.4953,2.4953,2.4953,0,2.3712,2.3858,2.3897,2.4003,2.4065,2.4079,2.4189,2.4252,2.4379,2.4423,2.4399,2.4618,2.4686,2.485,2.4888,2.4934,2.4968,2.4927,2.5097,2.5113,2.5127,2.5183,2.5204,2.4956,2.4955,2.4955,2.4955,0,2.3899,2.4001,2.4074,2.4195,2.4266,2.4373,2.4432,2.4499,2.4519,2.4567,2.4707,2.4789,2.4906,2.4947,2.4967,2.5116,2.5101,2.5087,2.5043,2.5149,2.5202,2.5223,2.4959,2.4958,2.4958,2.4957,0,0,2.4029,2.4172,2.4199,2.4255,2.4367,2.4448,2.4558,2.467,2.4729,2.4817,2.4913,2.506,2.5048,2.5115,2.5144,2.5219,2.5339,2.5196,2.5199,2.5222,2.5513,2.5524,2.5548,2.5343,2.5347,2.535,2.5505,0,2.4164,2.4356,2.4397,2.4564,2.4661,2.4678,2.4774,2.4855,2.4904,2.4996,2.5051,2.5155,2.513,2.5171,2.5246,2.5308,2.5398,2.5297,2.5436,2.544,2.5411,2.5575,2.5587,2.5729,2.5526,2.5529,2.5532,0,2.4347,2.4438,2.4615,2.4717,2.476,2.4845,2.4953,2.504,2.5134,2.5165,2.5241,2.5263,2.5382,2.5332,2.5498,2.5429,2.5489,2.5528,2.5535,2.5551,2.5493,2.5597,2.5775,2.5797,2.5564,2.5562,2.5559,0,2.4428,2.4595,2.4724,2.4771,2.4893,2.4953,2.5007,2.5098,2.5164,2.526,2.5305,2.5413,2.5474,2.556,2.5612,2.557,2.5777,2.573,2.5809,2.5808,2.5852,2.5849,2.6043,2.5887,2.5887,2.5886,2.5886,0,2.4575,2.4684,2.4762,2.4841,2.4964,2.5012,2.5134,2.5188,2.5269,2.5362,2.5384,2.5471,2.5534,2.5632,2.5674,2.5808,2.5834,2.5865,2.5876,2.5864,2.5861,2.5905,2.5897,2.5892,2.5891,2.5889,2.5888,0,2.4686,2.4742,2.4884,2.4988,2.5017,2.5104,2.5195,2.5274,2.5324,2.5442,2.5472,2.5552,2.5668,2.5729,2.5874,2.5903,2.6054,2.6058,2.6022,2.6026,2.6103,2.6096,2.6334,2.637,2.6187,2.6189,2.619,0,2.4777,2.4861,2.4974,2.5037,2.5092,2.5193,2.5261,2.5312,2.5383,2.5498,2.5565,2.5682,2.5779,2.5965,2.6037,2.615,2.6158,2.6234,2.6175,2.6163,2.6163,2.6158,2.6168,2.6245,2.6246,2.6248,2.6249,0,2.4935,2.4959,2.5054,2.5161,2.5242,2.5329,2.5415,2.5466,2.5532,2.5611,2.5729,2.5804,2.5953,2.6071,2.6189,2.6249,2.6262,2.6267,2.6292,2.6282,2.6259,2.6275,2.6053,2.6261,2.626,2.6259,2.6259,2.6258,2.5041,2.5117,2.5209,2.5317,2.5387,2.5468,2.5548,2.5609,2.5707,2.5831,2.5856,2.5983,2.6079,2.624,2.6303,2.6405,2.639,2.6425,2.6434,2.6443,2.6448,2.6241,2.6427,2.6427,2.6426,2.6426,2.6426,0,2.5201,2.5262,2.536,2.5479,2.5565,2.5567,2.5664,2.5736,2.5846,2.5934,2.6029,2.6167,2.6282,2.6364,2.6483,2.6549,2.6558,2.6579,2.6575,2.659,2.6453,2.6421,2.6569,2.6569,2.6569,2.6569,2.6569,2.6569,2.5295,2.5426,2.5462,2.5629,2.569,2.5812,2.5868,2.5944,2.6015,2.6167,2.6262,2.6314,2.6402,2.6527,2.6634,2.6656,2.67,2.672,2.6743,2.6614,2.6599,2.6584,2.6555,2.6729,2.6729,2.6872,2.6873,2.6874]},{"header":{"parameterUnit":"m.s-1","parameterCategory":1,"la1":30.2991,"la2":30.254,"lo1":-89.0895,"lo2":-89.0444,"dy":0.0017,"dx":0.0017,"nx":28,"ny":28,"refTime":"2024-05-14T03:00:00:Z","depth":0,"parameterNumber":3,"parameterNumberName":"V-component_of_WINDS"},"data":[0,0,0,0,0,0,0,0,0,0,0,0,0,0,0,0,0,0,0,0,0,0,0,0,0,0,0,0,0,0,0,0,0,0,0,0,0,0,0,0,0,0,0,0,0,0,0,0,0,0,0,0,0,0,0,0,0,0,1.5914,1.5917,0,1.6262,1.6266,1.6269,1.6351,1.6349,1.6347,1.6344,1.6709,1.6721,1.6732,0,0,0,0,0,0,0,0,0,0,0,0,0,1.5328,1.5339,1.5913,1.5918,1.5922,1.6261,1.6266,1.627,1.6352,1.6349,1.6346,1.6343,1.6705,1.6719,1.6733,0,0,0,0,0,0,0,0,0,0,0,0,0,1.562,1.5342,1.5913,1.6003,1.6015,1.626,1.6266,1.6272,1.6352,1.6349,1.6345,1.6342,1.67,1.6718,1.6735,1.6918,0,0,1.679,1.6798,0,0,0,0,0,0,0,0,1.5603,1.5642,1.5986,1.5997,1.6011,1.6259,1.6193,1.6489,1.6353,1.6224,1.6344,1.634,1.6563,1.6592,1.6665,1.6935,1.695,1.6792,1.6803,1.681,1.6815,0,0,0,0,0,0,0,1.5583,1.5627,1.6051,1.5991,1.6006,1.603,1.6067,1.625,1.641,1.6235,1.6242,1.6282,1.6569,1.6648,1.6674,1.6956,1.6791,1.6807,1.6818,1.6825,1.7395,1.7399,0,0,0,0,0,0,1.5546,1.561,1.604,1.6062,1.5794,1.6043,1.6085,1.6183,1.6408,1.6439,1.6284,1.6284,1.6619,1.6653,1.6687,1.6918,1.681,1.6827,1.6837,1.7391,1.7396,1.7401,0,0,0,0,0,0,1.5533,1.5583,1.6026,1.5838,1.5896,1.6057,1.6167,1.6192,1.6271,1.6445,1.6475,1.6335,1.6617,1.6662,1.686,1.6932,1.6835,1.6851,1.7386,1.7392,1.7399,1.7379,0,0,0,0,0,0,1.5516,1.5578,1.5647,1.5839,1.5905,1.619,1.6171,1.6201,1.63,1.6303,1.65,1.6529,1.6618,1.6833,1.6878,1.6955,1.6865,1.738,1.7389,1.7396,1.7374,1.7384,1.7393,0,0,0,0,0,1.5495,1.5629,1.565,1.5702,1.5994,1.6194,1.6233,1.633,1.6306,1.6378,1.649,1.6523,1.6915,1.6852,1.6904,1.6987,1.7376,1.7386,1.7396,1.737,1.7382,1.7393,0,0,0,0,0,0,1.5445,1.5656,1.5682,1.5881,1.6019,1.6208,1.6302,1.634,1.6489,1.6486,1.6602,1.6646,1.6837,1.6932,1.6857,1.7177,1.7146,1.7166,1.7108,1.7122,1.7131,1.7106,1.688,0,0,0,0,0,1.5457,1.5599,1.5776,1.5936,1.6003,1.614,1.6231,1.6293,1.6442,1.6501,1.6628,1.6773,1.6929,1.703,1.7183,1.7387,1.7433,1.747,1.7479,1.7486,1.7504,1.7621,1.7641,1.7433,1.7433,1.7433,0,0,1.5484,1.5617,1.57,1.5929,1.6043,1.619,1.6189,1.6344,1.6456,1.6526,1.672,1.6818,1.6988,1.7189,1.7285,1.7274,1.757,1.7498,1.7502,1.7517,1.7633,1.7653,1.767,1.744,1.7439,1.7438,0,0,1.561,1.5722,1.5869,1.5982,1.6154,1.6244,1.6278,1.6462,1.6529,1.6725,1.6781,1.6916,1.7182,1.7302,1.7397,1.7566,1.7604,1.7613,1.7664,1.7777,1.7793,1.7809,1.7873,1.7894,1.7629,1.7629,1.7629,0,1.5623,1.5844,1.594,1.6093,1.6194,1.626,1.6412,1.6518,1.6732,1.6801,1.6785,1.7121,1.724,1.7472,1.7513,1.7587,1.7633,1.7593,1.7783,1.7799,1.7815,1.7877,1.79,1.763,1.763,1.763,1.763,0,1.5854,1.6006,1.6104,1.6307,1.6418,1.6569,1.6691,1.6793,1.6845,1.6937,1.7138,1.7282,1.7467,1.7526,1.7579,1.7766,1.7755,1.7759,1.7731,1.7833,1.7894,1.7918,1.763,1.763,1.763,1.763,0,0,1.5961,1.6212,1.6247,1.6341,1.6534,1.6656,1.6811,1.6989,1.7076,1.722,1.7356,1.7579,1.7584,1.7693,1.776,1.7859,1.7988,1.7852,1.7858,1.7875,1.8207,1.8205,1.8231,1.8012,1.8016,1.802,1.8194,0,1.6113,1.639,1.648,1.6712,1.6857,1.6921,1.7057,1.7192,1.7282,1.742,1.7521,1.7678,1.7672,1.7738,1.7838,1.795,1.8057,1.7939,1.8143,1.8149,1.8102,1.8262,1.8261,1.8418,1.8218,1.8222,1.8225,0,1.6328,1.6474,1.6719,1.6895,1.6959,1.7079,1.7251,1.738,1.7536,1.7595,1.7714,1.7774,1.7942,1.79,1.8135,1.8053,1.8142,1.821,1.8218,1.8245,1.8196,1.8297,1.847,1.8494,1.8262,1.8259,1.8257,0,1.6386,1.6643,1.6824,1.6902,1.7111,1.7194,1.7286,1.7437,1.7539,1.7689,1.7757,1.7925,1.8018,1.8148,1.8252,1.8212,1.8479,1.8446,1.8537,1.8534,1.8594,1.8589,1.8787,1.8643,1.8643,1.8642,1.8642,0,1.6549,1.6697,1.6853,1.6965,1.7134,1.7237,1.7403,1.7498,1.7632,1.7766,1.7832,1.7957,1.8085,1.8227,1.831,1.8494,1.8534,1.8589,1.861,1.8586,1.858,1.8649,1.8642,1.8649,1.8647,1.8646,1.8645,0,1.6644,1.6753,1.6955,1.7136,1.7185,1.7302,1.7458,1.7571,1.7662,1.7831,1.7877,1.8023,1.8193,1.8309,1.8528,1.8584,1.8785,1.8802,1.8732,1.8743,1.8828,1.882,1.9082,1.9123,1.8947,1.8948,1.8949,0,1.6742,1.6858,1.705,1.7143,1.7234,1.7383,1.7486,1.7592,1.7698,1.7883,1.7974,1.8148,1.8294,1.8565,1.8692,1.8861,1.8885,1.8965,1.8911,1.8884,1.8891,1.8885,1.8899,1.8975,1.8976,1.8977,1.8978,0,1.6907,1.6955,1.71,1.7264,1.7385,1.7521,1.7657,1.773,1.786,1.7976,1.815,1.8262,1.8485,1.866,1.884,1.8938,1.8982,1.8993,1.9024,1.9002,1.8959,1.8987,1.8759,1.8988,1.8987,1.8986,1.8986,1.8985,1.701,1.7116,1.7268,1.7428,1.7541,1.7666,1.7781,1.7886,1.8033,1.8221,1.8275,1.8457,1.8611,1.8858,1.8958,1.9104,1.9097,1.9141,1.9153,1.9163,1.9165,1.8931,1.9137,1.9137,1.9137,1.9137,1.9136,0,1.7181,1.7281,1.7427,1.7614,1.7741,1.7766,1.7918,1.8023,1.8182,1.832,1.8461,1.8663,1.8832,1.8971,1.9146,1.9237,1.9261,1.9279,1.9276,1.9299,1.9159,1.9117,1.9257,1.9257,1.9257,1.9257,1.9257,1.9257,1.7285,1.7468,1.7534,1.7774,1.7874,1.8052,1.8137,1.8254,1.8365,1.8586,1.8726,1.8814,1.8955,1.914,1.9297,1.9334,1.9397,1.9412,1.9454,1.9322,1.9308,1.9296,1.9257,1.9424,1.9424,1.9582,1.9584,1.9585]}]]